| time (UTC) | temp C | wind direction | speed KPH | gust KPH | rain 1hr cm | rain 24hr cm | rain mn cm | humidity % | barometer mb |
| 20260508151316 | 16 | 40 | 12.9 | 25.7 | 0.00 | 0.00 | 0.00 | 52 | 1020.1 |
| 20260508150313 | 16 | 63 | 14.5 | 27.4 | 0.00 | 0.00 | 0.00 | 51 | 1020.1 |
| 20260508145752 | 16 | 40 | 14.5 | 29.0 | 0.00 | 0.00 | 0.00 | 48 | 1020.1 |
| 20260508144310 | 16 | 76 | 14.5 | 32.2 | 0.00 | 0.00 | 0.00 | 46 | 1020.3 |
| 20260508143306 | 16 | 39 | 14.5 | 29.0 | 0.00 | 0.00 | 0.00 | 45 | 1020.2 |
| 20260508142306 | 16 | 49 | 12.9 | 32.2 | 0.00 | 0.00 | 0.00 | 42 | 1020.2 |
| 20260508141303 | 17 | 9 | 11.3 | 25.7 | 0.00 | 0.00 | 0.00 | 41 | 1020.3 |
| 20260508140305 | 17 | 94 | 14.5 | 30.6 | 0.00 | 0.00 | 0.00 | 32 | 1020.2 |
| 20260508135305 | 17 | 32 | 14.5 | 30.6 | 0.00 | 0.00 | 0.00 | 40 | 1020.4 |
| 20260508134303 | 17 | 71 | 16.1 | 29.0 | 0.00 | 0.00 | 0.00 | 37 | 1020.4 |
| 20260508133745 | 17 | 89 | 12.9 | 27.4 | 0.00 | 0.00 | 0.00 | 37 | 1020.4 |
| 20260508132306 | 17 | 70 | 12.9 | 25.7 | 0.00 | 0.00 | 0.00 | 32 | 1020.5 |
| 20260508131305 | 17 | 77 | 11.3 | 29.0 | 0.00 | 0.00 | 0.00 | 38 | 1020.6 |
| 20260508130757 | 17 | 69 | 8.0 | 25.7 | 0.00 | 0.00 | 0.00 | 41 | 1020.5 |
| 20260508125748 | 17 | 18 | 14.5 | 27.4 | 0.00 | 0.00 | 0.00 | 33 | 1020.4 |
| 20260508124303 | 17 | 181 | 6.4 | 29.0 | 0.00 | 0.00 | 0.00 | 37 | 1020.6 |
| 20260508123745 | 17 | 82 | 9.7 | 38.6 | 0.00 | 0.00 | 0.00 | 41 | 1020.6 |
| 20260508122306 | 17 | 32 | 9.7 | 27.4 | 0.00 | 0.00 | 0.00 | 42 | 1020.7 |
| 20260508121317 | 17 | 58 | 11.3 | 22.5 | 0.00 | 0.00 | 0.00 | 44 | 1020.5 |
| 20260508120303 | 17 | 61 | 12.9 | 30.6 | 0.00 | 0.00 | 0.00 | 43 | 1020.5 |
| 20260508114304 | 16 | 67 | 14.5 | 27.4 | 0.00 | 0.00 | 0.00 | 36 | 1020.3 |
| 20260508113304 | 17 | 57 | 12.9 | 25.7 | 0.00 | 0.00 | 0.00 | 44 | 1020.5 |
| 20260508112306 | 16 | 71 | 12.9 | 30.6 | 0.00 | 0.00 | 0.00 | 45 | 1020.5 |
| 20260508111753 | 16 | 105 | 11.3 | 22.5 | 0.00 | 0.00 | 0.00 | 40 | 1020.5 |
| 20260508110304 | 16 | 65 | 9.7 | 25.7 | 0.00 | 0.00 | 0.00 | 48 | 1020.6 |
| 20260508105306 | 15 | 63 | 14.5 | 25.7 | 0.00 | 0.00 | 0.00 | 47 | 1020.6 |
| 20260508104303 | 16 | 38 | 12.9 | 29.0 | 0.00 | 0.00 | 0.00 | 48 | 1020.7 |
| 20260508103304 | 16 | 132 | 12.9 | 22.5 | 0.00 | 0.00 | 0.00 | 50 | 1020.9 |
| 20260508102750 | 15 | 92 | 8.0 | 16.1 | 0.00 | 0.00 | 0.00 | 51 | 1020.9 |
| 20260508101302 | 15 | 46 | 11.3 | 25.7 | 0.00 | 0.00 | 0.00 | 51 | 1020.9 |
| 20260508100303 | 15 | 30 | 9.7 | 20.9 | 0.00 | 0.00 | 0.00 | 51 | 1021.0 |
| 20260508095306 | 14 | 41 | 12.9 | 22.5 | 0.00 | 0.00 | 0.00 | 54 | 1021.0 |
| 20260508094302 | 15 | 71 | 11.3 | 22.5 | 0.00 | 0.00 | 0.00 | 53 | 1021.1 |
| 20260508093303 | 14 | 87 | 6.4 | 19.3 | 0.00 | 0.00 | 0.00 | 55 | 1021.1 |
| 20260508092312 | 14 | 56 | 14.5 | 27.4 | 0.00 | 0.00 | 0.00 | 54 | 1021.1 |
| 20260508091302 | 13 | 38 | 8.0 | 20.9 | 0.00 | 0.00 | 0.00 | 56 | 1021.1 |
| 20260508090304 | 13 | 69 | 8.0 | 17.7 | 0.00 | 0.00 | 0.00 | 57 | 1021.3 |
| 20260508085306 | 13 | 111 | 9.7 | 20.9 | 0.00 | 0.00 | 0.00 | 60 | 1021.1 |
| 20260508084741 | 13 | 71 | 11.3 | 20.9 | 0.00 | 0.00 | 0.00 | 61 | 1021.2 |
| 20260508083303 | 13 | 63 | 8.0 | 20.9 | 0.00 | 0.00 | 0.00 | 60 | 1021.2 |
| 20260508082306 | 13 | 200 | 6.4 | 14.5 | 0.00 | 0.00 | 0.00 | 61 | 1021.3 |
| 20260508081303 | 12 | 86 | 4.8 | 22.5 | 0.00 | 0.00 | 0.00 | 63 | 1021.1 |
| 20260508080305 | 12 | 88 | 6.4 | 16.1 | 0.00 | 0.00 | 0.00 | 65 | 1021.3 |
| 20260508075308 | 12 | 85 | 6.4 | 17.7 | 0.00 | 0.00 | 0.00 | 63 | 1021.4 |
| 20260508074303 | 11 | 107 | 9.7 | 17.7 | 0.00 | 0.00 | 0.00 | 57 | 1021.2 |
| 20260508073304 | 11 | 54 | 3.2 | 12.9 | 0.00 | 0.00 | 0.00 | 62 | 1021.3 |
| 20260508072307 | 11 | 59 | 6.4 | 11.3 | 0.00 | 0.00 | 0.00 | 63 | 1021.4 |
| 20260508071303 | 11 | 74 | 0.0 | 6.4 | 0.00 | 0.00 | 0.00 | 56 | 1021.2 |
| 20260508070312 | 10 | 64 | 3.2 | 8.0 | 0.00 | 0.00 | 0.00 | 63 | 1021.1 |
| 20260508065312 | 10 | 146 | 0.0 | 6.4 | 0.00 | 0.00 | 0.00 | 62 | 1021.1 |
| 20260508064307 | 10 | 192 | 0.0 | 4.8 | 0.00 | 0.00 | 0.00 | 64 | 1021.1 |
| 20260508063749 | 9 | 192 | 3.2 | 4.8 | 0.00 | 0.00 | 0.00 | 66 | 1020.9 |
| 20260508062306 | 9 | 192 | 0.0 | 4.8 | 0.00 | 0.00 | 0.00 | 66 | 1020.7 |
| 20260508061302 | 8 | 192 | 3.2 | 4.8 | 0.00 | 0.00 | 0.00 | 68 | 1020.7 |
| 20260508060305 | 8 | 189 | 3.2 | 6.4 | 0.00 | 0.00 | 0.00 | 71 | 1020.6 |
| 20260508055337 | 8 | 179 | 3.2 | 8.0 | 0.00 | 0.00 | 0.00 | 75 | 1020.6 |
| 20260508054303 | 7 | 124 | 0.0 | 4.8 | 0.00 | 0.00 | 0.00 | 79 | 1020.5 |
| 20260508053303 | 6 | 77 | 0.0 | 3.2 | 0.00 | 0.00 | 0.00 | 84 | 1020.5 |
| 20260508052306 | 6 | 76 | 0.0 | 0.0 | 0.00 | 0.00 | 0.00 | 85 | 1020.5 |
| 20260508051303 | 5 | 76 | 0.0 | 0.0 | 0.00 | 0.00 | 0.00 | 86 | 1020.3 |
| 20260508050304 | 5 | 76 | 0.0 | 0.0 | 0.00 | 0.00 | 0.00 | 87 | 1020.2 |
| 20260508045748 | 4 | 76 | 0.0 | 0.0 | 0.00 | 0.00 | 0.00 | 87 | 1020.1 |
| 20260508044305 | 3 | 76 | 0.0 | 0.0 | 0.00 | 0.00 | 0.00 | 87 | 1020.2 |
| 20260508043304 | 3 | 76 | 0.0 | 0.0 | 0.00 | 0.00 | 0.00 | 88 | 1020.1 |
| 20260508042307 | 3 | 76 | 0.0 | 0.0 | 0.00 | 0.00 | 0.00 | 88 | 1020.1 |
| 20260508041303 | 3 | 76 | 0.0 | 0.0 | 0.00 | 0.00 | 0.00 | 88 | 1020.0 |
| 20260508040304 | 3 | 76 | 0.0 | 0.0 | 0.00 | 0.00 | 0.00 | 88 | 1019.9 |
| 20260508035306 | 2 | 76 | 0.0 | 0.0 | 0.00 | 0.00 | 0.00 | 88 | 1019.8 |
| 20260508034303 | 3 | 76 | 0.0 | 0.0 | 0.00 | 0.00 | 0.00 | 89 | 1019.9 |
| 20260508033304 | 2 | 76 | 0.0 | 0.0 | 0.00 | 0.00 | 0.00 | 88 | 1019.8 |
| 20260508032316 | 2 | 76 | 0.0 | 0.0 | 0.00 | 0.00 | 0.00 | 88 | 1019.7 |
| 20260508031303 | 3 | 76 | 0.0 | 0.0 | 0.00 | 0.00 | 0.00 | 87 | 1019.8 |
| 20260508030303 | 3 | 76 | 0.0 | 0.0 | 0.00 | 0.00 | 0.00 | 87 | 1019.8 |
| 20260508025316 | 3 | 76 | 0.0 | 0.0 | 0.00 | 0.00 | 0.00 | 87 | 1019.8 |
| 20260508024303 | 3 | 76 | 0.0 | 0.0 | 0.00 | 0.00 | 0.00 | 86 | 1019.7 |
| 20260508023304 | 3 | 76 | 0.0 | 0.0 | 0.00 | 0.00 | 0.00 | 86 | 1019.6 |
| 20260508022307 | 3 | 76 | 0.0 | 0.0 | 0.00 | 0.00 | 0.00 | 86 | 1019.6 |
| 20260508021303 | 3 | 76 | 0.0 | 0.0 | 0.00 | 0.00 | 0.00 | 85 | 1019.6 |
| 20260508020303 | 4 | 76 | 0.0 | 0.0 | 0.00 | 0.00 | 0.00 | 85 | 1019.6 |
| 20260508015305 | 4 | 76 | 0.0 | 0.0 | 0.00 | 0.00 | 0.00 | 85 | 1019.6 |
| 20260508014303 | 4 | 76 | 0.0 | 0.0 | 0.00 | 0.00 | 0.00 | 85 | 1019.5 |
| 20260508013305 | 4 | 76 | 0.0 | 0.0 | 0.00 | 0.00 | 0.00 | 85 | 1019.4 |
| 20260508012307 | 4 | 76 | 0.0 | 0.0 | 0.00 | 0.00 | 0.00 | 85 | 1019.4 |
| 20260508011304 | 4 | 76 | 0.0 | 0.0 | 0.00 | 0.00 | 0.00 | 83 | 1019.4 |
| 20260508010304 | 4 | 76 | 0.0 | 0.0 | 0.00 | 0.00 | 0.00 | 84 | 1019.5 |
| 20260508005306 | 5 | 76 | 0.0 | 0.0 | 0.00 | 0.00 | 0.00 | 83 | 1019.4 |
| 20260508004303 | 5 | 76 | 0.0 | 0.0 | 0.00 | 0.00 | 0.00 | 82 | 1019.4 |
| 20260508002307 | 5 | 76 | 0.0 | 0.0 | 0.00 | 0.00 | 0.00 | 82 | 1019.3 |
| 20260508001303 | 5 | 76 | 0.0 | 0.0 | 0.00 | 0.00 | 0.00 | 82 | 1019.3 |
| 20260508000741 | 5 | 76 | 0.0 | 0.0 | 0.00 | 0.00 | 0.00 | 82 | 1019.3 |
| 20260507235306 | 5 | 76 | 0.0 | 0.0 | 0.00 | 0.00 | 0.00 | 81 | 1019.3 |
| 20260507234304 | 5 | 76 | 0.0 | 0.0 | 0.00 | 0.00 | 0.00 | 81 | 1019.3 |
| 20260507233305 | 5 | 76 | 0.0 | 0.0 | 0.00 | 0.00 | 0.00 | 81 | 1019.3 |
| 20260507232742 | 5 | 76 | 0.0 | 0.0 | 0.00 | 0.00 | 0.00 | 81 | 1019.3 |
| 20260507231303 | 6 | 76 | 0.0 | 0.0 | 0.00 | 0.00 | 0.00 | 81 | 1019.3 |
| 20260507230306 | 6 | 76 | 0.0 | 0.0 | 0.00 | 0.00 | 0.00 | 80 | 1019.2 |
| 20260507225307 | 6 | 76 | 0.0 | 0.0 | 0.00 | 0.00 | 0.00 | 79 | 1019.2 |
| 20260507224305 | 6 | 76 | 0.0 | 0.0 | 0.00 | 0.00 | 0.00 | 79 | 1019.2 |
| 20260507223306 | 6 | 76 | 0.0 | 0.0 | 0.00 | 0.00 | 0.00 | 78 | 1019.3 |
| 20260507221306 | 7 | 76 | 0.0 | 0.0 | 0.00 | 0.00 | 0.00 | 77 | 1019.2 |
| 20260507220323 | 7 | 76 | 0.0 | 3.2 | 0.00 | 0.00 | 0.00 | 76 | 1019.0 |
| 20260507215307 | 7 | 76 | 1.6 | 3.2 | 0.00 | 0.00 | 0.00 | 75 | 1019.1 |
| 20260507214305 | 7 | 76 | 3.2 | 4.8 | 0.00 | 0.00 | 0.00 | 75 | 1019.1 |
| 20260507213307 | 7 | 76 | 3.2 | 4.8 | 0.00 | 0.00 | 0.00 | 75 | 1019.0 |
| 20260507212757 | 7 | 76 | 3.2 | 4.8 | 0.00 | 0.00 | 0.00 | 74 | 1019.0 |
| 20260507211305 | 8 | 76 | 3.2 | 4.8 | 0.00 | 0.00 | 0.00 | 74 | 1018.9 |
| 20260507210305 | 8 | 76 | 3.2 | 4.8 | 0.00 | 0.00 | 0.00 | 73 | 1018.9 |
| 20260507205307 | 8 | 78 | 3.2 | 4.8 | 0.00 | 0.00 | 0.00 | 73 | 1018.9 |
| 20260507204746 | 8 | 78 | 3.2 | 4.8 | 0.00 | 0.00 | 0.00 | 72 | 1018.7 |
| 20260507203305 | 9 | 78 | 1.6 | 4.8 | 0.00 | 0.00 | 0.00 | 72 | 1018.6 |
| 20260507202320 | 9 | 78 | 1.6 | 4.8 | 0.00 | 0.00 | 0.00 | 71 | 1018.7 |
| 20260507201320 | 9 | 78 | 0.0 | 6.4 | 0.00 | 0.00 | 0.00 | 70 | 1018.6 |
| 20260507200749 | 10 | 78 | 3.2 | 6.4 | 0.00 | 0.00 | 0.00 | 69 | 1018.6 |
| 20260507195306 | 10 | 79 | 3.2 | 8.0 | 0.00 | 0.00 | 0.00 | 68 | 1018.6 |
| 20260507194305 | 10 | 82 | 3.2 | 6.4 | 0.00 | 0.00 | 0.00 | 67 | 1018.5 |
| 20260507193741 | 10 | 59 | 4.8 | 8.0 | 0.00 | 0.00 | 0.00 | 66 | 1018.4 |
| 20260507192306 | 11 | 78 | 1.6 | 6.4 | 0.00 | 0.00 | 0.00 | 63 | 1018.3 |
| 20260507191754 | 11 | 78 | 1.6 | 4.8 | 0.00 | 0.00 | 0.00 | 56 | 1018.1 |
| 20260507190307 | 11 | 79 | 1.6 | 8.0 | 0.00 | 0.00 | 0.00 | 58 | 1017.9 |
| 20260507184307 | 12 | 90 | 6.4 | 12.9 | 0.00 | 0.00 | 0.00 | 54 | 1017.7 |
| 20260507183311 | 12 | 73 | 8.0 | 14.5 | 0.00 | 0.00 | 0.00 | 53 | 1017.7 |
| 20260507182307 | 12 | 84 | 4.8 | 16.1 | 0.00 | 0.00 | 0.00 | 53 | 1017.6 |
| 20260507181305 | 13 | 66 | 6.4 | 16.1 | 0.00 | 0.00 | 0.00 | 52 | 1017.5 |
| 20260507180306 | 13 | 77 | 6.4 | 16.1 | 0.00 | 0.00 | 0.00 | 50 | 1017.5 |
| 20260507175307 | 13 | 80 | 8.0 | 17.7 | 0.00 | 0.00 | 0.00 | 50 | 1017.4 |
| 20260507174305 | 13 | 110 | 6.4 | 19.3 | 0.00 | 0.00 | 0.00 | 50 | 1017.3 |
| 20260507173306 | 13 | 48 | 11.3 | 22.5 | 0.00 | 0.00 | 0.00 | 46 | 1017.2 |
| 20260507172758 | 13 | 59 | 4.8 | 17.7 | 0.00 | 0.00 | 0.00 | 54 | 1017.2 |
| 20260507171306 | 14 | 32 | 4.8 | 19.3 | 0.00 | 0.00 | 0.00 | 53 | 1017.1 |
| 20260507170328 | 14 | 74 | 9.7 | 19.3 | 0.00 | 0.00 | 0.00 | 55 | 1017.1 |
| 20260507165312 | 14 | 104 | 6.4 | 22.5 | 0.00 | 0.00 | 0.00 | 55 | 1017.1 |
| 20260507164311 | 14 | 46 | 9.7 | 20.9 | 0.00 | 0.00 | 0.00 | 54 | 1017.0 |
| 20260507163309 | 15 | 84 | 8.0 | 19.3 | 0.00 | 0.00 | 0.00 | 52 | 1016.9 |
| 20260507162307 | 15 | 71 | 6.4 | 17.7 | 0.00 | 0.00 | 0.00 | 46 | 1016.9 |
| 20260507161306 | 15 | 48 | 9.7 | 29.0 | 0.00 | 0.00 | 0.00 | 50 | 1016.9 |
| 20260507160306 | 16 | 51 | 12.9 | 29.0 | 0.00 | 0.00 | 0.00 | 49 | 1016.8 |
| 20260507155306 | 16 | 82 | 8.0 | 20.9 | 0.00 | 0.00 | 0.00 | 49 | 1016.8 |
| 20260507154305 | 16 | 49 | 11.3 | 19.3 | 0.00 | 0.00 | 0.00 | 48 | 1016.7 |
| 20260507153322 | 16 | 71 | 12.9 | 25.7 | 0.00 | 0.00 | 0.00 | 49 | 1016.8 |
| 20260507152306 | 16 | 86 | 11.3 | 22.5 | 0.00 | 0.00 | 0.00 | 47 | 1016.7 |